Location: Marsån
(66.4167°N, 22.2833°E)
Time: 11:18:50
(UTC+00:00)

MetOp-B - Pass Details

Date: 24 February 2024
Orbit: 819 x 821 km, 98.6° (Epoch: 16 April)

Event Time Altitude Azimuth Distance (km) Brightness Sun altitude
Exits shadow 18:57:21 26° 174° (S) 1,569 5.3 -21.5°
Maximum altitude 19:00:26 70° 252° (WSW) 879 4.3 -21.8°
Drops below altitude 10° 19:05:49 10° 337° (NNW) 2,436 7.3 -22.3°
Sets 19:08:12 0° 340° (NNW) 3,372 8.1 -22.5°
